+ View the NASA Portal
+ Center for Near-Earth Object Studies
JPL Small-Body Database Browser
Search:
[
help
]
58067 (2269 T-1)
Classification:
Main-belt Asteroid
SPK-ID:
2058067
[
Ephemeris
|
Orbit Diagram
|
Orbital Elements
|
Mission Design
|
Physical Parameters
|
Discovery Circumstances
]
[ show orbit diagram ]
Orbital Elements at Epoch 2459200.5 (2020-Dec-17.0) TDB
Reference:
JPL 24
(heliocentric ecliptic J2000)
Element
Value
Uncertainty (1-sigma)
Units
e
.1248428222191803
3.2764e-08
a
2.32937395500219
8.4909e-09
au
q
2.038568336455862
7.8305e-08
au
i
6.262028614225155
4.3121e-06
deg
node
29.10154408867395
3.3152e-05
deg
peri
96.63244468840824
3.8278e-05
deg
M
40.80342952089984
1.8006e-05
deg
t
p
2459053.319112972108
(2020-Jul-22.81911297)
6.4822e-05
TDB
period
1298.545733831069
3.56
7.1001e-06
1.944e-08
d
yr
n
.2772332083660238
1.5158e-09
deg/d
Q
2.620179573548517
9.5509e-09
au
Orbit Determination Parameters
# obs. used (total)
913
data-arc span
18203 days (49.84 yr)
first obs. used
1971-03-24
last obs. used
2021-01-23
planetary ephem.
DE431
SB-pert. ephem.
SB431-N16
condition code
0
norm. resid. RMS
.53977
source
ORB
producer
Otto Matic
solution date
2021-Feb-23 20:34:30
Additional Information
Earth MOID
= 1.06486 au
Jupiter MOID
= 2.43995 au
T_jup
= 3.554
[ show covariance matrix ]
[
Ephemeris
|
Orbit Diagram
|
Orbital Elements
|
Mission Design
|
Physical Parameters
|
Discovery Circumstances
]
Physical Parameter Table
Parameter
Symbol
Value
Units
Sigma
Reference
Notes
absolute magnitude
H
15.66
n/a
E2021B10
diameter
diameter
1.832
km
0.211
urn:nasa:pds:neowise_diameters_albedos::2.0[mainbelt] (http://adsabs.harvard.edu/abs/2011ApJ...741...68M)
geometric albedo
albedo
0.210
0.055
urn:nasa:pds:neowise_diameters_albedos::2.0[mainbelt] (http://adsabs.harvard.edu/abs/2011ApJ...741...68M)
58067 (2269 T-1)
Discovered 1971-Mar-25 by van Houten, C. J., van Houten-Groeneveld, I., Gehrels, T. at Palomar
Reference:
20030318/Numbers.arc
Last Updated:
2004-04-19
Alternate Designations
2269 T-1
= 2001 SZ43
[
Ephemeris
|
Orbit Diagram
|
Orbital Elements
|
Mission Design
|
Physical Parameters
|
Discovery Circumstances
]
2021-Feb-27 05:12 UT
(server date/time)
Site Manager:
Ryan S. Park
Webmaster
:
Alan B. Chamberlin